Location: Augustenthal
(51.7167°N, 10.2833°E)
Time: 22:22:26
(UTC+00:00)

Cosmos 1833 - Pass Details

Date: 18 May 2021
Orbit: 833 x 865 km, 70.9° (Epoch: 23 June)

Event Time Altitude Azimuth Distance (km) Brightness Sun altitude
Rises 21:29:48 0° 328° (NNW) 3,446 9.3 -14.9°
Reaches altitude 10° 21:32:15 10° 328° (NNW) 2,510 8.0 -15.1°
Maximum altitude 21:38:03 84° 242° (WSW) 876 4.2 -15.4°
Enters shadow 21:41:39 24° 156° (SSE) 1,709 5.2 -15.6°
